Regional Weather Roundup
Issued by NWS Green Bay, WI

Home | Current Version | Previous Version | Text Only | Print | Product List | Glossary On
Versions: 1 2 3 4 5 6 7 8 9 10 11 12 13 14 15 16 17 18 19 20 21 22 23 24 25 26 27 28 29 30 31 32 33 34 35 36 37 38 39 40 41 42 43 44 45 46 47 48 49 50
000
ASUS43 KGRB 070010
RWRGRB

NORTH-CENTRAL AND NORTHEAST WISCONSIN REGIONAL WEATHER ROUNDUP
NATIONAL WEATHER SERVICE GREEN BAY WI
600 PM CST FRI MAR 06 2015

WIZ005-009-010>012-018-019-070100-
NORTH CENTRAL WISCONSIN

CITY           SKY/WX    TMP DP  RH WIND       PRES   REMARKS
IRONWOOD       CLEAR     28  10  47 W9        29.93R
MANITOWISH WTR   N/A     25   9  50 W3        29.93R
ARBOR VITAE    CLEAR     28  11  48 W6        29.94R
EAGLE RIVER    CLEAR     23   8  52 W7        29.92R
LAND O LAKES   CLEAR     27   9  46 W5        29.92R
RHINELANDER    CLEAR     23  10  57 W13       29.94R
PHILLIPS       PTCLDY    26  11  52 W5        29.96R
ANTIGO         CLEAR     23  12  62 W10G16    29.96R
TOMAHAWK       CLEAR     26  11  52 W9        29.97R
MERRILL        CLEAR     26  13  59 W8        29.98R
$$

WIZ013-073-070100-
NORTHEAST WISCONSIN

CITY           SKY/WX    TMP DP  RH WIND       PRES   REMARKS
IRON MOUNTAIN  CLEAR     28  10  46 W6        29.91R
MARINETTE      CLEAR     28  12  50 S7        29.97R
OCONTO         CLEAR     28  14  54 SW7       29.99S
$$

WIZ017-030-035>037-045-070100-
CENTRAL WISCONSIN

CITY           SKY/WX    TMP DP  RH WIND       PRES   REMARKS
MEDFORD        CLEAR     25  13  60 W7        29.98S
WAUSAU         CLEAR     26  13  57 W7        29.98R
MOSINEE        CLEAR     28  14  54 W10       30.00R
MARSHFIELD     CLEAR     28  15  58 W9        30.01R
WISC RAPIDS    CLEAR     31  14  49 W12       30.03R
STEVENS POINT  CLEAR     29  13  52 W3        30.01R
WAUPACA        CLEAR     31  15  50 SW8       30.02R
SHAWANO        CLEAR     31  14  49 SW6       29.99S
CLINTONVILLE   CLEAR     30  14  51 SW7       30.00R
$$

WIZ038-039-048-051-070100-
FOX VALLEY

CITY           SKY/WX    TMP DP  RH WIND       PRES   REMARKS
NWS GREEN BAY  CLEAR     26  16  65 SW10      30.01R
APPLETON       PTCLDY    28  12  50 SW18      30.02R
OSHKOSH        CLEAR     26  15  63 SW8       30.04R
FOND DU LAC    CLEAR     25  13  60 SW14      30.05R
$$

WIZ022-050-052-070100-
EAST CENTRAL WISCONSIN

CITY           SKY/WX    TMP DP  RH WIND       PRES   REMARKS
STURGEON BAY   CLEAR     25  12  58 SW13G18   30.01R
MANITOWOC      PTCLDY    26  16  65 SW12      30.04R
SHEBOYGAN      PTCLDY    25  14  63 SW15      30.05R
$$

LMZ563-521-522-541>543-070100-
LAKESHORE

STATION/POSITION TIME  TEMP    WIND        PRES    VSBY  WAVE
                       AIR SEA DIR/SP/G                  HT/PER
                 (UTC) (F)     (DEG/KT/KT) (MB)    (MI)  (FT/S)
SHEBOYGAN LKSHOR 0000   27     220/ 16/ 18 1019.2R
KEWAUNEE LKSHORE 0000   27     240/  8/ 12 1015.8S
NORTHPORT PIER   0000   26     200/  3/ 12 1015.2R
SISTER BAY LKSHO 2300   27     230/ 15/ 18   N/A
CHAMBERS ISLAND  0000   24     190/  9/ 18 1015.2S
MENOMINEE LKSHOR 0000   25     360/ 11     1015.7R
$$



USA.gov is the U.S. government's official web portal to all federal, state and local government web resources and services.